Regional Weather Roundup
Issued by NWS

Home | Current Version | Previous Version | Text Only | Print | Product List | Glossary On
Versions: 1 2 3 4 5 6 7 8 9 10 11 12 13 14 15 16 17 18 19 20 21 22 23 24 25 26 27
000
ASUS44 KBMX 240810
RWRAL

ALABAMA REGIONAL WEATHER ROUNDUP
NATIONAL WEATHER SERVICE BIRMINGHAM AL
300 AM CDT THU AUG 24 2017

NOTE: "FAIR" INDICATES FEW OR NO CLOUDS BELOW 12,000 FEET
WITH NO SIGNIFICANT WEATHER AND/OR OBSTRUCTIONS TO VISIBILITY.

THE REMARK "TC" DENOTES TEMPERATURE IN DEGREES CELSIUS.

ALZ001>011-014-016>018-020-240900-
NORTH ALABAMA

CITY           SKY/WX    TMP DP  RH WIND       PRES   REMARKS
MUSCLE SHOALS  CLEAR     67  60  78 VRB6      29.99S
HUNTSVILLE     CLEAR     64  61  90 N5        29.97S
DECATUR        CLEAR     62  61  96 N5        29.97S
HALEYVILLE     FAIR      64  62  93 N5        30.00S
GADSDEN        CLEAR     66  62  87 N3        29.95F
$$

ALZ012-013-022-023-030>036-040>044-240900-
WEST CENTRAL ALABAMA

CITY           SKY/WX    TMP DP  RH WIND       PRES   REMARKS
TUSCALOOSA     CLEAR     72  66  81 N5        29.94S
DEMOPOLIS      NOT AVBL
$$

ALZ015-024>026-033>036-041>044-240900-
CENTRAL ALABAMA

CITY           SKY/WX    TMP DP  RH WIND       PRES   REMARKS
BIRMINGHAM     PTCLDY    70  64  81 CALM      29.97S
MONTGOMERY     CLEAR     75  69  81 CALM      29.91S
SHELBY CO ARPT PTCLDY    72  66  81 N3        29.94S
MAXWELL AFB    PTCLDY    75  70  83 N3        29.90S
GREENVILLE     FAIR      75  69  81 CALM      29.91R
SELMA          FAIR      72  70  94 CALM      29.91S
PRATTVILLE     FAIR      72  69  91 CALM      29.91R
BESSEMER       FAIR      70  65  84 N3        29.96S
TALLADEGA      FAIR     N/A N/A N/A MISG      29.95S
PELL CITY      NOT AVBL
MARION         FAIR      73  68  82 MISG      29.92R
SYLACAUGA      FAIR      72  67  84 CALM      29.94S
$$

ALZ019-021-028-029-037-038-045>048-240900-
EAST CENTRAL ALABAMA

CITY           SKY/WX    TMP DP  RH WIND       PRES   REMARKS
ANNISTON       PTCLDY    71  62  73 N7        29.94S
ALEXANDER CITY CLEAR     71  66  84 CALM      29.93S
AUBURN         CLEAR     72  68  87 N6        29.94R
$$

ALZ051>064-240900-
SOUTHWEST ALABAMA

CITY           SKY/WX    TMP DP  RH WIND       PRES   REMARKS
MOBILE         CLOUDY    76  73  91 CALM      29.90S
BROOKLEY FIELD CLOUDY    76  76 100 CALM      29.90S
EVERGREEN      CLOUDY    76  73  91 CALM      29.91R
$$

ALZ049-050-065>069-240900-
SOUTHEAST ALABAMA

CITY           SKY/WX    TMP DP  RH WIND       PRES   REMARKS
DOTHAN         CLOUDY    78  76  93 CALM      29.93S
OZARK          PTCLDY    76  74  93 NW3       29.89F
TROY           CLEAR     74  73  97 NE3       29.91F
EUFAULA        FAIR      76  73  91 CALM      29.89S
$$




USA.gov is the U.S. government's official web portal to all federal, state and local government web resources and services.